Back to catalog

HIMAWARI 3 AKM

AliveMEO
NORAD 22266·ROCKET BODY·🇯🇵 Japan

Launched Aug 2, 1984 from Tanegashima Space Center

Loading…

Next Passes (next 24 hours)

TLE

FreshSource: Space-Track

Epoch: Sep 13, 2026, 20:49 UTC

1 22266U 84080E   26256.86789582  .00000025  00000-0  00000+0 0  9998
2 22266   9.3589 315.6132 0136125 115.5500 263.7456  0.99750565118379

Track HIMAWARI 3 AKM in real time with AllMySat

Download on the App Store